Location: Seattle
(47.6064°N, 122.3308°W)
Time: 08:22:18
(UTC-07:00)

RS-15 - Pass Details

Date: 09 April 2023
Orbit: 1885 x 2159 km, 64.8° (Epoch: 01 June)

Event Time Altitude Azimuth Distance (km) Brightness Sun altitude
Rises 21:05:40 0° 307° (NW) 5,674 12.3 -12.7°
Reaches altitude 10° 21:09:33 10° 315° (NW) 4,651 11.3 -13.3°
Maximum altitude 21:20:57 42° 24° (NNE) 2,734 8.8 -15.0°
Enters shadow 21:30:51 13° 91° (E) 4,210 9.3 -16.4°
